TimeCDT,TemperatureF,Dew PointF,Humidity,Sea Level PressureIn,VisibilityMPH,Wind Direction,Wind SpeedMPH,Gust SpeedMPH,PrecipitationIn,Events,Conditions,WindDirDegrees,DateUTC
12:56 AM,32.0,26.1,79,30.02,10.0,Calm,Calm,-,N/A,,Mostly Cloudy,0,2011-10-29 05:56:00
1:56 AM,30.0,24.1,79,30.02,10.0,Calm,Calm,-,N/A,,Clear,0,2011-10-29 06:56:00
2:56 AM,28.4,23.0,80,30.00,10.0,Calm,Calm,-,N/A,,Clear,0,2011-10-29 07:56:00
3:56 AM,27.0,21.9,81,30.03,10.0,SSW,3.5,-,N/A,,Clear,210,2011-10-29 08:56:00
4:56 AM,26.6,23.0,86,30.01,10.0,SW,3.5,-,N/A,,Clear,220,2011-10-29 09:56:00
5:56 AM,26.1,23.0,88,30.04,10.0,SSW,3.5,-,N/A,,Clear,200,2011-10-29 10:56:00
6:56 AM,27.0,24.1,89,30.05,10.0,Calm,Calm,-,N/A,,Clear,0,2011-10-29 11:56:00
7:56 AM,26.1,24.1,92,30.07,10.0,Calm,Calm,-,N/A,,Clear,0,2011-10-29 12:56:00
8:56 AM,30.2,28.4,93,30.05,10.0,Calm,Calm,-,N/A,,Clear,0,2011-10-29 13:56:00
9:56 AM,36.0,28.0,73,30.09,10.0,Calm,Calm,-,N/A,,Clear,0,2011-10-29 14:56:00
10:56 AM,42.1,30.0,62,30.08,10.0,Calm,Calm,-,N/A,,Clear,0,2011-10-29 15:56:00
11:56 AM,46.0,30.0,54,30.08,10.0,Variable,4.6,-,N/A,,Clear,0,2011-10-29 16:56:00
12:56 PM,50.0,28.0,43,30.06,10.0,WSW,6.9,-,N/A,,Clear,250,2011-10-29 17:56:00
1:56 PM,51.1,26.1,38,30.04,10.0,Variable,5.8,-,N/A,,Clear,0,2011-10-29 18:56:00
2:56 PM,51.1,25.0,36,30.02,10.0,South,3.5,-,N/A,,Clear,180,2011-10-29 19:56:00
3:56 PM,51.1,23.0,33,30.02,10.0,Variable,4.6,-,N/A,,Clear,0,2011-10-29 20:56:00
4:56 PM,50.0,23.0,35,30.02,10.0,SSW,6.9,-,N/A,,Clear,210,2011-10-29 21:56:00
5:56 PM,45.0,23.0,42,30.02,10.0,Calm,Calm,-,N/A,,Clear,0,2011-10-29 22:56:00
6:56 PM,39.9,24.1,53,30.03,10.0,Calm,Calm,-,N/A,,Clear,0,2011-10-29 23:56:00
7:56 PM,33.1,23.0,66,30.03,10.0,Calm,Calm,-,N/A,,Clear,0,2011-10-30 00:56:00
8:56 PM,33.1,23.0,66,30.03,10.0,Calm,Calm,-,N/A,,Clear,0,2011-10-30 01:56:00
9:56 PM,32.0,25.0,75,30.02,10.0,Calm,Calm,-,N/A,,Clear,0,2011-10-30 02:56:00
10:56 PM,33.1,27.0,78,30.02,10.0,Calm,Calm,-,N/A,,Partly Cloudy,0,2011-10-30 03:56:00
11:56 PM,39.0,26.1,60,30.01,10.0,Calm,Calm,-,N/A,,Overcast,0,2011-10-30 04:56:00